WL7CLI Weather Reports


time (UTC)temp
C
wind
direction
speed
KPH
gust
KPH
rain 1hr
cm
rain 24hr
cm
rain mn
cm
humidity
%
barometer
mb
20260906165821 26 121 17.7 30.6 0.00 0.00 0.00 81 1017.7
20260906162821 26 109 20.9 43.5 0.00 0.00 0.00 80 1017.8
20260906155821 27 109 3.2 30.6 0.00 0.00 0.00 81 1018.0
20260906152821 26 132 24.1 30.6 0.00 0.00 0.00 80 1018.3
20260906145821 25 121 9.7 33.8 0.00 0.00 0.00 81 1018.4
20260906142821 25 121 3.2 30.6 0.00 0.00 0.00 84 1018.6
20260906135822 23 122 12.9 24.1 0.00 0.00 0.00 88 1018.9
20260906132821 -17 0 0.0 0.0 0.00 0.00 0.00 100 1016.0
20260906125821 -17 0 0.0 0.0 0.00 0.00 0.00 100 1015.9
20260906122821 -17 0 0.0 0.0 0.00 0.00 0.00 100 1015.1
20260906115821 -17 0 0.0 0.0 0.00 0.00 0.00 100 1014.3
20260906105811 23 122 0.0 0.0 0.00 0.00 0.00 90 1016.9
20260906102811 23 122 0.0 0.0 0.00 0.00 0.00 90 1017.0
20260906095811 23 122 0.0 0.0 0.00 0.00 0.00 90 1017.0
20260906092811 23 122 0.0 0.0 0.00 0.00 0.00 90 1016.7
20260906085811 23 122 0.0 0.0 0.00 0.00 0.00 90 1016.3
20260906082811 23 122 0.0 0.0 0.00 0.00 0.00 90 1016.3
20260906075811 23 122 0.0 0.0 0.00 0.00 0.00 90 1016.0
20260906072811 23 122 0.0 0.0 0.00 0.00 0.00 90 1016.2
20260906065811 23 122 0.0 0.0 0.00 0.00 0.00 90 1016.3
20260906062811 23 122 0.0 0.0 0.00 0.00 0.00 90 1016.4
20260906055811 23 122 0.0 0.0 0.00 0.00 0.00 90 1016.1
20260906052811 23 122 0.0 0.0 0.00 0.00 0.00 90 1016.1
20260906045811 23 122 0.0 0.0 0.00 0.00 0.00 90 1016.0
20260906042811 23 122 0.0 0.0 0.00 0.00 0.00 90 1015.8
20260906035811 23 122 0.0 0.0 0.00 0.00 0.00 90 1015.6
20260906032811 23 122 0.0 0.0 0.00 0.00 0.00 90 1015.4
20260906025811 23 122 0.0 0.0 0.00 0.00 0.00 90 1015.2
20260906022811 23 122 0.0 0.0 0.00 0.00 0.00 90 1014.7
20260906015811 23 122 0.0 0.0 0.00 0.00 0.00 90 1014.4
20260906012811 23 122 0.0 0.0 0.00 0.00 0.00 90 1014.2
20260906005811 23 122 0.0 0.0 0.00 0.00 0.00 90 1013.9
20260906002811 23 122 0.0 0.0 0.00 0.00 0.00 90 1013.7
20260905235811 23 122 0.0 0.0 0.00 0.00 0.00 90 1013.7
20260905232811 23 122 0.0 0.0 0.00 0.00 0.00 90 1013.5
20260905225811 23 122 0.0 0.0 0.00 0.00 0.00 90 1013.4
20260905222811 23 122 0.0 0.0 0.00 0.00 0.00 90 1013.3
20260905215811 23 122 0.0 0.0 0.00 0.00 0.00 90 1013.4
20260905212811 23 122 0.0 0.0 0.00 0.00 0.00 90 1013.7
20260905205811 23 122 0.0 0.0 0.00 0.00 0.00 90 1013.2
20260905202811 23 122 0.0 0.0 0.00 0.00 0.00 90 1013.6
20260905195811 23 122 0.0 0.0 0.00 0.00 0.00 90 1013.9
20260905192811 23 122 0.0 0.0 0.00 0.00 0.00 90 1014.3
20260905185811 23 122 0.0 0.0 0.00 0.00 0.00 90 1014.9
20260905182811 23 122 0.0 0.0 0.00 0.00 0.00 90 1015.2
20260905175811 23 122 0.0 0.0 0.00 0.00 0.00 90 1015.3
20260905172811 23 122 0.0 0.0 0.00 0.00 0.00 90 1015.5